Volver al catálogo

QIANFAN-114

ActivoComunicacionesPO
NORAD 68641·PAYLOAD·🇨🇳 China

Lanzado Apr 7, 2026 desde Wenchang Space Launch Site

Loading…

Próximos Pases (próximas 24 horas)

TLE

ActualizadoSource: Space-Track

Época: Sep 14, 2026, 20:16 UTC

1 68641U 26075F   26257.84475867  .00000070  00000-0  89694-4 0  9993
2 68641  88.9872 311.8675 0002257  97.7854 262.3553 13.51027529 21909

Sigue QIANFAN-114 en tiempo real con AllMySat

Download on the App Store